When you browse on this site, cookies collect data to enhance your experience and personalize the content and advertising you see.
Visit our Privacy Policy to learn more. By continuing to use the site, you agree to this use of cookies and data.

Stündliche Wetter Bolshie Lezhni

Heute, 27 September, Sonntag

Zeit Temperatur Niederschläge Wind Luftdruck Luftfeuchtigkeit
00:00 +15°C° 0 mm 5 m/S 746 mmHg 65%
01:00 +15°C° 0 mm 5 m/S 747 mmHg 65%
02:00 +14°C° 0 mm 5 m/S 747 mmHg 65%
03:00 +14°C° 0 mm 5 m/S 747 mmHg 64%
04:00 +14°C° 0 mm 5 m/S 747 mmHg 63%
05:00 +13°C° 0 mm 5 m/S 746 mmHg 62%
06:00 +14°C° 0 mm 5 m/S 747 mmHg 62%
07:00 +14°C° 0 mm 6 m/S 747 mmHg 63%
08:00 +14°C° 0 mm 6 m/S 747 mmHg 63%
09:00 +16°C° 0 mm 6 m/S 747 mmHg 60%
10:00 +17°C° 0 mm 7 m/S 747 mmHg 57%
11:00 +18°C° 0 mm 7 m/S 747 mmHg 55%
12:00 +20°C° 0 mm 7 m/S 747 mmHg 54%
13:00 +20°C° 0 mm 7 m/S 747 mmHg 54%
14:00 +21°C° 0 mm 7 m/S 747 mmHg 53%
15:00 +20°C° 0 mm 7 m/S 747 mmHg 56%
16:00 +19°C° 0 mm 6 m/S 747 mmHg 58%
17:00 +17°C° 0 mm 6 m/S 747 mmHg 61%
18:00 +16°C° 0.2 mm 6 m/S 747 mmHg 67%
19:00 +15°C° 0.2 mm 6 m/S 747 mmHg 73%
20:00 +14°C° 0.2 mm 6 m/S 747 mmHg 79%
21:00 +14°C° 0.3 mm 6 m/S 747 mmHg 82%
22:00 +13°C° 0.3 mm 6 m/S 747 mmHg 84%
23:00 +13°C° 0.3 mm 6 m/S 747 mmHg 87%

Morgen, 28 September, Montag

Zeit Temperatur Niederschläge Wind Luftdruck Luftfeuchtigkeit
00:00 +13°C° 0.5 mm 5 m/S 747 mmHg 88%
01:00 +12°C° 0.5 mm 5 m/S 747 mmHg 90%
02:00 +12°C° 0.5 mm 4 m/S 747 mmHg 92%
03:00 +13°C° 0.6 mm 4 m/S 747 mmHg 93%
04:00 +13°C° 0.6 mm 4 m/S 747 mmHg 93%
05:00 +13°C° 0.6 mm 4 m/S 748 mmHg 94%
06:00 +13°C° 0.4 mm 4 m/S 748 mmHg 93%
07:00 +12°C° 0.4 mm 5 m/S 748 mmHg 92%
08:00 +12°C° 0.4 mm 5 m/S 749 mmHg 91%
09:00 +12°C° 0 mm 5 m/S 749 mmHg 88%
10:00 +12°C° 0 mm 5 m/S 750 mmHg 84%
11:00 +12°C° 0 mm 5 m/S 751 mmHg 81%
12:00 +13°C° 0.1 mm 5 m/S 751 mmHg 78%
13:00 +13°C° 0.1 mm 4 m/S 751 mmHg 76%
14:00 +14°C° 0.1 mm 4 m/S 752 mmHg 73%
15:00 +14°C° 0 mm 3 m/S 752 mmHg 74%
16:00 +14°C° 0 mm 2 m/S 752 mmHg 75%
17:00 +14°C° 0 mm 2 m/S 752 mmHg 76%
18:00 +13°C° 0 mm 2 m/S 752 mmHg 79%
19:00 +12°C° 0 mm 2 m/S 753 mmHg 82%
20:00 +12°C° 0 mm 2 m/S 753 mmHg 85%
21:00 +10°C° 0 mm 2 m/S 753 mmHg 87%
22:00 +10°C° 0 mm 2 m/S 753 mmHg 88%
23:00 +10°C° 0 mm 2 m/S 753 mmHg 89%

übermorgen, 29 September, Dienstag

Zeit Temperatur Niederschläge Wind Luftdruck Luftfeuchtigkeit
00:00 +10°C° 0 mm 2 m/S 753 mmHg 90%
01:00 +9°C° 0 mm 2 m/S 753 mmHg 90%
02:00 +9°C° 0 mm 2 m/S 753 mmHg 90%
03:00 +9°C° 0 mm 2 m/S 753 mmHg 91%
04:00 +9°C° 0 mm 2 m/S 753 mmHg 91%
05:00 +9°C° 0 mm 2 m/S 753 mmHg 91%
06:00 +10°C° 0 mm 2 m/S 752 mmHg 88%
07:00 +10°C° 0 mm 2 m/S 752 mmHg 85%
08:00 +12°C° 0 mm 2 m/S 752 mmHg 82%
09:00 +14°C° 0 mm 2 m/S 752 mmHg 76%
10:00 +16°C° 0 mm 2 m/S 752 mmHg 69%
11:00 +17°C° 0 mm 2 m/S 752 mmHg 63%
12:00 +18°C° 0 mm 3 m/S 752 mmHg 62%
13:00 +19°C° 0 mm 3 m/S 751 mmHg 61%
14:00 +19°C° 0 mm 3 m/S 751 mmHg 60%
15:00 +18°C° 0 mm 3 m/S 751 mmHg 67%
16:00 +17°C° 0 mm 3 m/S 751 mmHg 74%
17:00 +17°C° 0 mm 2 m/S 750 mmHg 81%
18:00 +16°C° 0 mm 3 m/S 750 mmHg 84%
19:00 +14°C° 0 mm 3 m/S 750 mmHg 87%
20:00 +12°C° 0 mm 3 m/S 750 mmHg 90%
21:00 +12°C° 0 mm 3 m/S 750 mmHg 88%
22:00 +12°C° 0 mm 3 m/S 750 mmHg 85%
23:00 +12°C° 0 mm 3 m/S 750 mmHg 82%

30 September, Mittwoch

Zeit Temperatur Niederschläge Wind Luftdruck Luftfeuchtigkeit
00:00 +11°C° 0 mm 3 m/S 750 mmHg 79%
01:00 +11°C° 0 mm 3 m/S 749 mmHg 76%
02:00 +11°C° 0 mm 3 m/S 749 mmHg 73%
03:00 +11°C° 0 mm 3 m/S 749 mmHg 72%
04:00 +10°C° 0 mm 3 m/S 749 mmHg 72%
05:00 +10°C° 0 mm 4 m/S 749 mmHg 72%
06:00 +10°C° 0 mm 4 m/S 749 mmHg 70%
07:00 +10°C° 0 mm 4 m/S 749 mmHg 69%
08:00 +11°C° 0 mm 4 m/S 749 mmHg 67%
09:00 +12°C° 0 mm 4 m/S 749 mmHg 65%
10:00 +13°C° 0 mm 4 m/S 749 mmHg 62%
11:00 +14°C° 0 mm 4 m/S 749 mmHg 59%
12:00 +15°C° 0 mm 4 m/S 749 mmHg 60%
13:00 +15°C° 0 mm 4 m/S 749 mmHg 60%
14:00 +17°C° 0 mm 4 m/S 748 mmHg 60%
15:00 +15°C° 0 mm 4 m/S 748 mmHg 63%
16:00 +14°C° 0 mm 4 m/S 748 mmHg 66%
17:00 +14°C° 0 mm 4 m/S 748 mmHg 69%
18:00 +13°C° 0 mm 4 m/S 748 mmHg 67%
19:00 +13°C° 0 mm 4 m/S 749 mmHg 66%
20:00 +12°C° 0 mm 4 m/S 749 mmHg 65%
21:00 +12°C° 0 mm 4 m/S 748 mmHg 64%
22:00 +11°C° 0 mm 4 m/S 748 mmHg 63%
23:00 +11°C° 0 mm 4 m/S 748 mmHg 61%

1 Oktober, Donnerstag

Zeit Temperatur Niederschläge Wind Luftdruck Luftfeuchtigkeit
00:00 +10°C° 0 mm 4 m/S 748 mmHg 62%
01:00 +10°C° 0 mm 4 m/S 748 mmHg 62%
02:00 +8°C° 0 mm 4 m/S 748 mmHg 63%
03:00 +8°C° 0 mm 4 m/S 748 mmHg 63%
04:00 +8°C° 0 mm 4 m/S 748 mmHg 64%
05:00 +7°C° 0 mm 4 m/S 748 mmHg 64%
06:00 +8°C° 0 mm 5 m/S 748 mmHg 63%
07:00 +8°C° 0 mm 5 m/S 748 mmHg 62%
08:00 +9°C° 0 mm 5 m/S 748 mmHg 61%
09:00 +11°C° 0 mm 6 m/S 748 mmHg 59%
10:00 +13°C° 0 mm 6 m/S 748 mmHg 57%
11:00 +15°C° 0 mm 6 m/S 748 mmHg 55%
12:00 +15°C° 0 mm 6 m/S 748 mmHg 55%
13:00 +16°C° 0 mm 7 m/S 748 mmHg 54%
14:00 +16°C° 0 mm 7 m/S 748 mmHg 54%
15:00 +15°C° 0 mm 6 m/S 748 mmHg 57%
16:00 +15°C° 0 mm 6 m/S 748 mmHg 60%
17:00 +14°C° 0 mm 5 m/S 748 mmHg 63%
18:00 +13°C° 0 mm 5 m/S 748 mmHg 64%
19:00 +13°C° 0 mm 5 m/S 748 mmHg 65%
20:00 +12°C° 0 mm 5 m/S 749 mmHg 65%
21:00 +12°C° 0 mm 5 m/S 749 mmHg 66%
22:00 +10°C° 0 mm 5 m/S 749 mmHg 68%
23:00 +11°C° 0 mm 4 m/S 749 mmHg 69%

2 Oktober, Freitag

Zeit Temperatur Niederschläge Wind Luftdruck Luftfeuchtigkeit
00:00 +11°C° 0 mm 4 m/S 749 mmHg 67%
01:00 +11°C° 0 mm 4 m/S 749 mmHg 65%
02:00 +11°C° 0 mm 4 m/S 749 mmHg 63%
03:00 +11°C° 0 mm 4 m/S 749 mmHg 61%
04:00 +12°C° 0 mm 5 m/S 749 mmHg 59%
05:00 +12°C° 0 mm 5 m/S 749 mmHg 56%
06:00 +12°C° 0 mm 5 m/S 749 mmHg 57%
07:00 +12°C° 0 mm 5 m/S 749 mmHg 58%
08:00 +12°C° 0 mm 5 m/S 749 mmHg 59%
09:00 +13°C° 0 mm 6 m/S 750 mmHg 58%
10:00 +14°C° 0 mm 6 m/S 750 mmHg 57%
11:00 +14°C° 0 mm 6 m/S 750 mmHg 56%
12:00 +15°C° 0 mm 6 m/S 750 mmHg 55%
13:00 +15°C° 0 mm 6 m/S 750 mmHg 54%
14:00 +16°C° 0 mm 6 m/S 750 mmHg 53%
15:00 +15°C° 0 mm 6 m/S 750 mmHg 56%
16:00 +14°C° 0 mm 5 m/S 751 mmHg 59%
17:00 +14°C° 0 mm 4 m/S 751 mmHg 62%
18:00 +13°C° 0 mm 5 m/S 751 mmHg 66%
19:00 +12°C° 0 mm 5 m/S 751 mmHg 69%
20:00 +11°C° 0 mm 6 m/S 751 mmHg 72%
21:00 +11°C° 0 mm 6 m/S 751 mmHg 72%
22:00 +12°C° 0 mm 5 m/S 751 mmHg 71%
23:00 +12°C° 0 mm 5 m/S 751 mmHg 71%
Mehr zeigen